BELKA FOOL-FOOL

Flight info

Callsign BELKA
Flight time N/A
Altitude 3000
Route DCT
Aircraft L29/M-SDFGRWY/S

Departure

Time 2026-04-15 20:16
Airport Libreville Leon M'ba International Airport (FOOL)

Arrival

Time N/A
Airport Libreville Leon M'ba International Airport (FOOL)
Time Latitude Longitude Altitude Speed Heading
2026-04-15 20:11 0.45848 9.41041 37 ft 0 kts 245°
2026-04-15 20:11 0.45848 9.41040 37 ft 0 kts 277°
2026-04-15 20:11 0.45945 9.41010 39 ft 41 kts 343°
2026-04-15 20:12 0.46299 9.40849 40 ft 26 kts 339°
2026-04-15 20:12 0.46339 9.40853 40 ft 0 kts 17°
2026-04-15 20:12 0.46360 9.40857 40 ft 8 kts 359°
2026-04-15 20:12 0.46465 9.40892 40 ft 22 kts 71°
2026-04-15 20:13 0.46418 9.40967 40 ft 0 kts 156°
2026-04-15 20:15 0.46312 9.41021 40 ft 45 kts 157°
2026-04-15 20:16 0.45840 9.41242 46 ft 100 kts 153°
2026-04-15 20:16 0.45155 9.41610 282 ft 121 kts 158°
2026-04-15 20:16 0.44360 9.42080 560 ft 146 kts 161°
2026-04-15 20:16 0.43312 9.41869 662 ft 183 kts 212°
2026-04-15 20:17 0.43076 9.41708 663 ft 194 kts 213°
2026-04-15 20:17 0.42973 9.41638 657 ft 199 kts 212°
2026-04-15 20:17 0.42537 9.41349 564 ft 218 kts 209°
2026-04-15 20:17 0.41075 9.40605 624 ft 250 kts 200°
2026-04-15 20:18 0.39362 9.40017 756 ft 274 kts 195°
2026-04-15 20:18 0.37533 9.39489 1443 ft 270 kts 205°
2026-04-15 20:18 0.36015 9.38372 1437 ft 297 kts 225°
2026-04-15 20:18 0.34612 9.36880 2159 ft 287 kts 224°
2026-04-15 20:19 0.33250 9.35391 2389 ft 299 kts 226°
2026-04-15 20:19 0.31767 9.33939 2728 ft 303 kts 221°
2026-04-15 20:19 0.30099 9.32527 2494 ft 324 kts 215°
2026-04-15 20:19 0.28295 9.31183 2941 ft 318 kts 207°
2026-04-15 20:20 0.26232 9.30420 3014 ft 306 kts 202°
2026-04-15 20:20 0.24136 9.29595 2295 ft 333 kts 194°
2026-04-15 20:20 0.22012 9.29171 3209 ft 309 kts 181°
2026-04-15 20:20 0.19839 9.29018 3388 ft 315 kts 182°
2026-04-15 20:21 0.17715 9.28765 3898 ft 309 kts 186°
2026-04-15 20:21 0.15514 9.28483 2747 ft 355 kts 186°
2026-04-15 20:21 0.15217 9.28451 2740 ft 340 kts 185°
2026-04-15 20:21 0.13191 9.28221 2057 ft 263 kts 190°
2026-04-15 20:22 0.11588 9.27938 2013 ft 216 kts 187°
2026-04-15 20:22 0.10324 9.27489 2283 ft 186 kts 209°
2026-04-15 20:22 0.09168 9.27062 2354 ft 179 kts 189°
2026-04-15 20:22 0.07820 9.26929 1904 ft 196 kts 182°
2026-04-15 20:23 0.06383 9.26872 1144 ft 228 kts 179°
2026-04-15 20:23 0.04846 9.26774 1189 ft 209 kts 181°
2026-04-15 20:23 0.03623 9.26818 1863 ft 167 kts 172°
2026-04-15 20:23 0.02371 9.26900 1474 ft 185 kts 187°
2026-04-15 20:24 0.01138 9.26671 1631 ft 172 kts 189°
2026-04-15 20:24 -0.01015 9.26129 1712 ft 169 kts 195°
2026-04-15 20:24 -0.02139 9.25744 1709 ft 167 kts 206°
2026-04-15 20:25 -0.03222 9.25301 1721 ft 164 kts 203°
2026-04-15 20:25 -0.04186 9.24728 1820 ft 158 kts 213°
2026-04-15 20:25 -0.06449 9.22816 2970 ft 123 kts 265°